Location: Rio Negrinho
(26.2394°S, 49.4999°W)
Time: 19:36:29
(UTC+00:00)

Envisat - Pass Details

Date: 01 August 2021
Orbit: 764 x 766 km, 98.2° (Epoch: 17 September)

Event Time Altitude Azimuth Distance (km) Brightness Sun altitude
Rises 06:45:19 0° 54° (NE) 3,222 6.8 -43.0°
Reaches altitude 10° 06:48:33 10° 76° (ENE) 2,305 6.1 -42.3°
Enters shadow 06:51:01 15° 106° (ESE) 1,972 5.6 -41.7°
